Weather History for Ocala, FL

Change the Weather History Date:

Saturday, September 15, 2012

  Actual Average Record
Temperature  
Mean Temperature 76 °F -  
Max Temperature 87 °F 86 °F 95 °F (1997)
Min Temperature 66 °F 68 °F 64 °F (2001)
Cooling Degree Days 12    
Growing Degree Days 26 (Base 50)    
Moisture  
Dew Point 69 °F    
Average Humidity 79    
Maximum Humidity 100    
Minimum Humidity 46    
Precipitation  
Precipitation 0.00 in - - ()
Sea Level Pressure  
Sea Level Pressure 30.07 in    
Wind  
Wind Speed 4 mph (NE)    
Max Wind Speed 17 mph    
Max Gust Speed -    
Visibility 10 miles    
Events      
Averages and records for this station are not official NWS values.
T = Trace of Precipitation, MM = Missing Value Source: NWS Daily Summary

Daily Weather History Graph

Daily Weather History Graph

Search for Another Location

Airport:

Trip Planner

Search our weather history database for the weather conditions in past years. The results will help you decide how hot, cold, wet, or windy it might be!

Date:

Astronomy

Sep. 15, 2012 Rise Set
Actual Time 7:13 AM EDT 7:33 PM EDT
Civil Twilight 6:50 AM EDT 7:57 PM EDT
Nautical Twilight 6:22 AM EDT 8:24 PM EDT
Astronomical Twilight 5:54 AM EDT 8:52 PM EDT
Moon 6:41 AM EDT (9/15) 7:07 PM EDT (9/15)
Length of Visible Light 13h 06m
Length of Day
12h 19m
Waning Crescent, 0% of the Moon is Illuminated
Sep 15
Waning Crescent
Sep 15
New
Sep 22
First Quarter
Sep 29
Full
Oct 8
Last Quarter

Hourly Weather History & Observations

Time (EDT) Temp. Heat Index Dew Point Humidity Pressure Visibility Wind Dir Wind Speed Gust Speed Precip Events Conditions
12:35 AM 77.0 °F - 69.8 °F 78% 30.09 in 10.0 mi NE 3.5 mph - N/A   Clear
12:55 AM 75.2 °F - 69.8 °F 83% 30.08 in 10.0 mi NE 3.5 mph - N/A   Clear
1:15 AM 73.4 °F - 69.8 °F 88% 30.09 in 10.0 mi NNE 3.5 mph - N/A   Clear
1:35 AM 73.4 °F - 69.8 °F 88% 30.09 in 10.0 mi NE 3.5 mph - N/A   Clear
1:55 AM 71.6 °F - 69.8 °F 94% 30.08 in 10.0 mi NNE 3.5 mph - N/A   Clear
2:15 AM 73.4 °F - 69.8 °F 88% 30.08 in 10.0 mi NNE 5.8 mph - N/A   Clear
2:35 AM 73.4 °F - 69.8 °F 88% 30.07 in 10.0 mi NNE 4.6 mph - N/A   Clear
2:55 AM 69.8 °F - 69.8 °F 100% 30.07 in 10.0 mi Calm Calm - N/A   Clear
3:15 AM 75.2 °F - 68.0 °F 78% 30.07 in 10.0 mi NE 3.5 mph - N/A   Scattered Clouds
3:35 AM 73.4 °F - 69.8 °F 88% 30.06 in 10.0 mi Calm Calm - N/A   Scattered Clouds
3:55 AM 75.2 °F - 68.0 °F 78% 30.06 in 10.0 mi Calm Calm - N/A   Scattered Clouds
4:15 AM 71.6 °F - 69.8 °F 94% 30.05 in 10.0 mi Calm Calm - N/A   Partly Cloudy
4:35 AM 71.6 °F - 69.8 °F 94% 30.06 in 10.0 mi NNE 3.5 mph - N/A   Clear
4:55 AM 69.8 °F - 69.8 °F 100% 30.06 in 10.0 mi NNE 3.5 mph - N/A   Clear
5:15 AM 78.8 °F - 68.0 °F 69% 30.06 in 10.0 mi NNE 3.5 mph - N/A   Clear
5:35 AM 66.2 °F - 66.2 °F 100% 30.06 in 10.0 mi NNE 3.5 mph - N/A   Clear
5:55 AM 69.8 °F - 69.8 °F 100% 30.07 in 10.0 mi NE 3.5 mph - N/A   Clear
6:15 AM 69.8 °F - 69.8 °F 100% 30.07 in 10.0 mi NE 3.5 mph - N/A   Clear
6:35 AM 73.4 °F - 69.8 °F 88% 30.07 in 10.0 mi NNE 4.6 mph - N/A   Clear
6:50 AM 69.8 °F - 69.8 °F 100% 30.09 in 10.0 mi NNE 3.5 mph - N/A   Clear
7:50 AM 71.6 °F - 69.8 °F 94% 30.10 in 10.0 mi NNE 3.5 mph - N/A   Partly Cloudy
8:50 AM 69.8 °F - 69.8 °F 100% 30.11 in 10.0 mi ENE 3.5 mph - N/A   Mostly Cloudy
9:50 AM 78.8 °F - 69.8 °F 74% 30.12 in 10.0 mi ENE 8.1 mph - N/A   Overcast
10:50 AM 80.6 °F 83.9 °F 69.8 °F 70% 30.12 in 10.0 mi ENE 9.2 mph - N/A   Scattered Clouds
11:50 AM 82.4 °F 86.3 °F 69.8 °F 66% 30.11 in 10.0 mi ESE 5.8 mph - N/A   Scattered Clouds
12:50 PM 84.2 °F 88.4 °F 69.8 °F 62% 30.10 in 10.0 mi East 17.3 mph - N/A   Scattered Clouds
1:50 PM 86.0 °F 88.2 °F 66.2 °F 51% 30.08 in 10.0 mi East 6.9 mph - N/A   Scattered Clouds
2:50 PM 87.8 °F 90.4 °F 66.2 °F 49% 30.05 in 10.0 mi East 5.8 mph - N/A   Scattered Clouds
3:50 PM 87.8 °F 89.4 °F 64.4 °F 46% 30.02 in 10.0 mi East 9.2 mph - N/A   Scattered Clouds
4:50 PM 87.8 °F 90.4 °F 66.2 °F 49% 30.02 in 10.0 mi East 9.2 mph - N/A   Scattered Clouds
5:50 PM 87.8 °F 89.4 °F 64.4 °F 46% 30.02 in 10.0 mi East 5.8 mph - N/A   Scattered Clouds
7:55 PM 80.6 °F 82.7 °F 66.2 °F 61% 30.04 in 10.0 mi ENE 6.9 mph - N/A   Clear
8:15 PM 80.6 °F 83.2 °F 68.0 °F 65% 30.05 in 10.0 mi ENE 4.6 mph - N/A   Clear
8:35 PM 80.6 °F 83.2 °F 68.0 °F 65% 30.05 in 10.0 mi ENE 4.6 mph - N/A   Clear
8:55 PM 78.8 °F - 68.0 °F 69% 30.06 in 10.0 mi East 5.8 mph - N/A   Clear
9:15 PM 78.8 °F - 69.8 °F 74% 30.07 in 10.0 mi East 3.5 mph - N/A   Clear
9:35 PM 78.8 °F - 69.8 °F 74% 30.07 in 10.0 mi East 4.6 mph - N/A   Clear
9:55 PM 77.0 °F - 69.8 °F 78% 30.07 in 10.0 mi ENE 4.6 mph - N/A   Mostly Cloudy
10:15 PM 80.6 °F 83.9 °F 69.8 °F 70% 30.08 in 10.0 mi ENE 4.6 mph - N/A   Scattered Clouds
10:35 PM 77.0 °F - 69.8 °F 78% 30.08 in 10.0 mi NE 3.5 mph - N/A   Clear
10:55 PM 75.2 °F - 69.8 °F 83% 30.09 in 10.0 mi Calm Calm - N/A   Clear
11:15 PM 75.2 °F - 69.8 °F 83% 30.09 in 10.0 mi ENE 4.6 mph - N/A   Clear
11:35 PM 73.4 °F - 69.8 °F 88% 30.09 in 10.0 mi NE 4.6 mph - N/A   Clear
11:55 PM 75.2 °F - 69.8 °F 83% 30.09 in 10.0 mi NE 3.5 mph - N/A   Partly Cloudy